Danville, IN

5:05 PM EST on December 10, 2019 (GMT -0500)
Vermilion County

Weather History for KDNV - November, 2019

Change the Weather History Date:

Tuesday, November 12, 2019

  Actual Average (KLAF) Record (KLAF)
Temperature  
Mean Temperature 10 °F -  
Max Temperature 17 °F 49 °F 74 °F (2010)
Min Temperature 4 °F 31 °F 15 °F (1986)
Degree Days  
Heating Degree Days 54    
Moisture  
Dew Point 2 °F    
Average Humidity 69    
Maximum Humidity 85    
Minimum Humidity 48    
Precipitation  
Precipitation 0.00 in - - ()
Sea Level Pressure  
Sea Level Pressure 30.44 in    
Wind  
Wind Speed 10 mph ()    
Max Wind Speed 16 mph    
Max Gust Speed 23 mph    
Visibility 10.0 miles    
Events      
Averages and records for this station are not official NWS values.
T = Trace of Precipitation, MM = Missing Value Source: Averaged Metar Reports

Daily Weather History Graph

Daily Weather History Graph

Search for Another Location

Airport or City:

Astronomy

Nov. 12, 2019 Rise Set
Actual Time 6:32 AM CST 4:36 PM CST
Civil Twilight 6:03 AM CST 5:05 PM CST
Nautical Twilight 5:30 AM CST 5:37 PM CST
Astronomical Twilight 4:58 AM CST 6:09 PM CST
Moon 5:03 PM CST (11/12) 6:23 AM CST (11/12)
Length of Visible Light 11h 01m
Length of Day
10h 04m
Full, 100% of the Moon is Illuminated
Nov 12
Full
Nov 19
Last Quarter
Nov 26
New
Dec 4
First Quarter
Dec 11
Full

Hourly Weather History & Observations

Time (CST) Temp. Windchill Dew Point Humidity Pressure Visibility Wind Dir Wind Speed Gust Speed Precip Events Conditions
12:15 AM 13.8 °F -1.1 °F 5.4 °F 69% 30.38 in 10.0 mi NW 13.8 mph - N/A   Clear
12:35 AM 13.1 °F -3.1 °F 4.8 °F 70% 30.38 in 10.0 mi NW 16.1 mph 19.6 mph N/A   Clear
12:55 AM 12.6 °F -0.6 °F 4.5 °F 70% 30.38 in 10.0 mi WNW 10.4 mph 18.4 mph N/A   Clear
1:15 AM 12.0 °F -2.7 °F 3.7 °F 69% 30.38 in 10.0 mi NW 12.7 mph 17.3 mph N/A   Clear
1:35 AM 11.8 °F -3.0 °F 3.2 °F 68% 30.38 in 10.0 mi NW 12.7 mph - N/A   Clear
1:55 AM 11.3 °F -3.6 °F 3.0 °F 69% 30.39 in 10.0 mi NW 12.7 mph - N/A   Clear
2:15 AM 11.3 °F -4.9 °F 2.5 °F 68% 30.39 in 10.0 mi NW 15.0 mph 20.7 mph N/A   Clear
2:35 AM 11.1 °F -4.5 °F 2.3 °F 68% 30.39 in 10.0 mi NW 13.8 mph 19.6 mph N/A   Clear
2:55 AM 11.1 °F -5.7 °F 3.2 °F 70% 30.39 in 10.0 mi NW 16.1 mph 19.6 mph N/A   Clear
3:15 AM 10.9 °F -5.9 °F 3.2 °F 71% 30.39 in 10.0 mi NW 16.1 mph 20.7 mph N/A   Clear
3:35 AM 10.4 °F -4.8 °F 3.2 °F 73% 30.40 in 10.0 mi NW 12.7 mph 18.4 mph N/A   Clear
3:55 AM 10.0 °F -6.5 °F 3.2 °F 74% 30.40 in 10.0 mi NW 15.0 mph 19.6 mph N/A   Clear
4:15 AM 10.2 °F -5.7 °F 3.0 °F 73% 30.41 in 10.0 mi NW 13.8 mph 20.7 mph N/A   Clear
4:35 AM 9.5 °F -6.6 °F 2.7 °F 74% 30.42 in 10.0 mi NW 13.8 mph - N/A   Clear
4:55 AM 9.1 °F -6.4 °F 2.3 °F 74% 30.42 in 10.0 mi NW 12.7 mph - N/A   Clear
5:15 AM 9.1 °F -7.0 °F 2.3 °F 74% 30.42 in 10.0 mi NW 13.8 mph 19.6 mph N/A   Clear
5:35 AM 9.1 °F -8.2 °F 2.3 °F 74% 30.42 in 10.0 mi NW 16.1 mph 20.7 mph N/A   Clear
6:15 AM 8.1 °F -7.7 °F 1.4 °F 74% 30.43 in 10.0 mi NW 12.7 mph - N/A   Clear
6:35 AM 7.5 °F -8.4 °F 1.2 °F 75% 30.44 in 10.0 mi NW 12.7 mph 17.3 mph N/A   Clear
6:55 AM 7.7 °F -7.4 °F 1.0 °F 74% 30.45 in 10.0 mi NW 11.5 mph - N/A   Clear
7:15 AM 8.4 °F -7.9 °F 1.0 °F 72% 30.46 in 10.0 mi NW 13.8 mph - N/A   Clear
7:35 AM 8.6 °F -7.7 °F 1.0 °F 71% 30.48 in 10.0 mi NW 13.8 mph - N/A   Clear
7:55 AM 9.3 °F -5.4 °F 1.2 °F 70% 30.48 in 10.0 mi NW 11.5 mph 19.6 mph N/A   Clear
8:15 AM 10.0 °F -5.2 °F 1.6 °F 69% 30.48 in 10.0 mi NW 12.7 mph 17.3 mph N/A   Clear
8:35 AM 10.2 °F -6.3 °F 1.6 °F 68% 30.49 in 10.0 mi NW 15.0 mph 23.0 mph N/A   Clear
8:55 AM 10.9 °F -5.4 °F 2.1 °F 68% 30.49 in 10.0 mi NNW 15.0 mph 20.7 mph N/A   Clear
9:15 AM 11.3 °F -5.5 °F 2.5 °F 68% 30.49 in 10.0 mi NNW 16.1 mph 20.7 mph N/A   Clear
9:35 AM 11.7 °F -2.5 °F 2.3 °F 66% 30.49 in 10.0 mi NW 11.5 mph 17.3 mph N/A   Clear
9:55 AM 12.2 °F -3.1 °F 2.5 °F 65% 30.49 in 10.0 mi NNW 13.8 mph - N/A   Clear
10:35 AM 14.0 °F 1.2 °F 3.9 °F 64% 30.50 in 10.0 mi WNW 10.4 mph - N/A   Clear
10:55 AM 14.4 °F 1.6 °F 3.4 °F 62% 30.51 in 10.0 mi NW 10.4 mph - N/A   Clear
11:15 AM 15.1 °F 3.3 °F 3.7 °F 61% 30.50 in 10.0 mi NW 9.2 mph - N/A   Clear
11:35 AM 15.1 °F 1.8 °F 3.2 °F 59% 30.50 in 10.0 mi WNW 11.5 mph - N/A   Clear
11:55 AM 15.8 °F 2.1 °F 3.9 °F 60% 30.49 in 10.0 mi WNW 12.7 mph - N/A   Clear
12:15 PM 16.5 °F 3.6 °F 4.6 °F 60% 30.49 in 10.0 mi WNW 11.5 mph 16.1 mph N/A   Clear
12:35 PM 16.7 °F 3.8 °F 3.4 °F 56% 30.48 in 10.0 mi NW 11.5 mph - N/A   Clear
12:55 PM 16.9 °F 4.8 °F 1.8 °F 52% 30.48 in 10.0 mi NW 10.4 mph - N/A   Clear
1:15 PM 17.6 °F - 2.8 °F 53% 30.47 in 10.0 mi Calm Calm - N/A   Clear
1:35 PM 17.6 °F 6.4 °F 2.1 °F 51% 30.46 in 10.0 mi NW 9.2 mph - N/A   Clear
1:55 PM 17.6 °F 5.0 °F 1.8 °F 50% 30.46 in 10.0 mi NW 11.5 mph - N/A   Clear
2:15 PM 17.6 °F 4.3 °F 0.9 °F 48% 30.45 in 10.0 mi NW 12.7 mph 16.1 mph N/A   Clear
2:35 PM 17.4 °F 6.2 °F 1.8 °F 50% 30.46 in 10.0 mi NW 9.2 mph - N/A   Clear
2:55 PM 17.4 °F 6.2 °F 1.4 °F 50% 30.46 in 10.0 mi WNW 9.2 mph - N/A   Clear
3:15 PM 17.2 °F 6.0 °F 1.8 °F 51% 30.47 in 10.0 mi NW 9.2 mph - N/A   Clear
3:35 PM 17.1 °F 7.6 °F 2.5 °F 53% 30.47 in 10.0 mi NW 6.9 mph - N/A   Clear
3:55 PM 16.5 °F 6.9 °F 3.0 °F 55% 30.47 in 10.0 mi NW 6.9 mph - N/A   Clear
4:15 PM 15.8 °F 5.1 °F 3.2 °F 58% 30.46 in 10.0 mi WNW 8.1 mph - N/A   Clear
5:15 PM 11.8 °F - 2.5 °F 66% 30.47 in 10.0 mi Calm Calm - N/A   Clear
5:35 PM 11.1 °F - 1.9 °F 67% 30.47 in 10.0 mi Calm Calm - N/A   Clear
5:55 PM 11.3 °F - 2.1 °F 67% 30.47 in 10.0 mi Calm Calm - N/A   Clear
6:15 PM 10.4 °F - 1.9 °F 69% 30.46 in 10.0 mi Calm Calm - N/A   Clear
6:35 PM 9.3 °F - 1.8 °F 71% 30.46 in 10.0 mi Calm Calm - N/A   Clear
6:55 PM 9.3 °F - 2.1 °F 73% 30.45 in 10.0 mi Calm Calm - N/A   Clear
7:35 PM 7.0 °F - 0.9 °F 76% 30.45 in 10.0 mi Calm Calm - N/A   Clear
7:55 PM 7.3 °F - 1.8 °F 78% 30.44 in 10.0 mi Calm Calm - N/A   Clear
8:15 PM 6.1 °F - 1.2 °F 80% 30.44 in 10.0 mi Calm Calm - N/A   Clear
8:35 PM 5.7 °F - 1.0 °F 81% 30.43 in 10.0 mi Calm Calm - N/A   Clear
8:55 PM 4.5 °F - 0.7 °F 84% 30.43 in 10.0 mi Calm Calm - N/A   Clear
9:15 PM 5.0 °F - 0.9 °F 83% 30.43 in 10.0 mi Calm Calm - N/A   Clear
9:35 PM 5.5 °F - 1.6 °F 84% 30.43 in 10.0 mi Calm Calm - N/A   Clear
9:55 PM 5.9 °F - 2.1 °F 84% 30.42 in 10.0 mi Calm Calm - N/A   Clear
10:15 PM 5.2 °F - 1.6 °F 85% 30.42 in 10.0 mi Calm Calm - N/A   Clear
10:35 PM 5.9 °F - 1.4 °F 82% 30.41 in 10.0 mi Calm Calm - N/A   Clear
10:55 PM 5.9 °F - 0.9 °F 80% 30.41 in 10.0 mi Calm Calm - N/A   Clear
11:15 PM 5.7 °F - 0.9 °F 80% 30.41 in 10.0 mi Calm Calm - N/A   Clear
11:35 PM 5.0 °F - 0.5 °F 82% 30.40 in 10.0 mi Calm Calm - N/A   Clear
11:55 PM 4.6 °F - 0.5 °F 83% 30.40 in 10.0 mi Calm Calm - N/A   Clear